,,PA_Meas_PMT16A,,PR_Meas_QMR101_102,,RH_Meas_QMH101,,SR_Meas_QMS101,,TA_Meas_QMH101,,GenWind,,GenWind,
time,status,PA,status,PR,status,RH,status,SR,status,TA,status,DirAvg,status,SpdAvg,
2014-06-26, 00:00:04,VALID,919.508,VALID,0,VALID,95.6053,VALID,0,VALID,20.1513,VALID,358,VALID,0.272656,
2014-06-26, 00:01:04,VALID,919.492,VALID,0,VALID,95.6739,VALID,0,VALID,20.2098,VALID,358,VALID,0.133984,
2014-06-26, 00:02:04,VALID,919.494,VALID,0,VALID,95.6281,VALID,0,VALID,20.1903,VALID,358,VALID,0.271875,
2014-06-26, 00:03:04,VALID,919.429,VALID,0,VALID,95.2698,VALID,0,VALID,20.0733,VALID,358,VALID,0.380859,
2014-06-26, 00:04:04,VALID,919.394,VALID,0,VALID,95.186,VALID,0,VALID,20.0944,VALID,358,VALID,0.358984,
2014-06-26, 00:05:04,VALID,919.411,VALID,0,VALID,95.2851,VALID,0,VALID,20.0944,VALID,358,VALID,0.300391,
2014-06-26, 00:06:04,VALID,919.38,VALID,0,VALID,95.0488,VALID,0,VALID,20.0148,VALID,358,VALID,0.405859,
2014-06-26, 00:07:04,VALID,919.361,VALID,0,VALID,94.6218,VALID,0,VALID,19.9173,VALID,358,VALID,0.442969,
2014-06-26, 00:08:04,VALID,919.366,VALID,0,VALID,95.1174,VALID,0,VALID,19.9968,VALID,358,VALID,0.497656,
2014-06-26, 00:09:04,VALID,919.326,VALID,0,VALID,95.2241,VALID,0,VALID,19.9968,VALID,358,VALID,0.675,
2014-06-26, 00:10:04,VALID,919.332,VALID,0,VALID,95.468,VALID,0,VALID,20.0749,VALID,358,VALID,0.716406,
2014-06-26, 00:11:04,VALID,919.311,VALID,0,VALID,95.5519,VALID,0,VALID,20.0928,VALID,358,VALID,0.621875,
2014-06-26, 00:12:04,VALID,919.319,VALID,0,VALID,95.5748,VALID,0,VALID,20.1513,VALID,358,VALID,0.61875,
2014-06-26, 00:13:04,VALID,919.335,VALID,0,VALID,95.5519,VALID,0,VALID,20.1724,VALID,358,VALID,0.699219,
2014-06-26, 00:14:04,VALID,919.324,VALID,0,VALID,95.5062,VALID,0,VALID,20.1513,VALID,357,VALID,0.571094,
2014-06-26, 00:15:04,VALID,919.331,VALID,0,VALID,95.5138,VALID,0,VALID,20.1888,VALID,358,VALID,0.376953,
2014-06-26, 00:16:04,VALID,919.353,VALID,0,VALID,95.5367,VALID,0,VALID,20.2309,VALID,358,VALID,0.492578,
2014-06-26, 00:17:04,VALID,919.362,VALID,0,VALID,95.5062,VALID,0,VALID,20.2114,VALID,358,VALID,0.220313,
2014-06-26, 00:18:04,VALID,919.322,VALID,0,VALID,95.5138,VALID,0,VALID,20.2098,VALID,358,VALID,0.700781,
2014-06-26, 00:19:04,VALID,919.348,VALID,0,VALID,95.4452,VALID,0,VALID,20.1529,VALID,358,VALID,0.586719,
2014-06-26, 00:20:04,VALID,919.328,VALID,0,VALID,95.4604,VALID,0,VALID,20.1513,VALID,358,VALID,0.41875,
2014-06-26, 00:21:04,VALID,919.367,VALID,0,VALID,95.529,VALID,0,VALID,20.2309,VALID,358,VALID,0.600391,
2014-06-26, 00:22:04,VALID,919.347,VALID,0,VALID,95.5976,VALID,0,VALID,20.2293,VALID,358,VALID,0.412109,
2014-06-26, 00:23:04,VALID,919.365,VALID,0,VALID,95.59,VALID,0,VALID,20.2293,VALID,358,VALID,0.597656,
2014-06-26, 00:24:04,VALID,919.339,VALID,0,VALID,95.6129,VALID,0,VALID,20.2098,VALID,358,VALID,0.221875,
2014-06-26, 00:25:04,VALID,919.353,VALID,0,VALID,95.6357,VALID,0,VALID,20.2098,VALID,358,VALID,0,
2014-06-26, 00:26:04,VALID,919.365,VALID,0,VALID,95.6357,VALID,0,VALID,20.2114,VALID,357,VALID,0,
2014-06-26, 00:27:04,VALID,919.382,VALID,0,VALID,95.6281,VALID,0,VALID,20.1919,VALID,357,VALID,0.00273437,
2014-06-26, 00:28:04,VALID,919.394,VALID,0,VALID,95.6205,VALID,0,VALID,20.1708,VALID,358,VALID,0,
2014-06-26, 00:29:04,VALID,919.391,VALID,0,VALID,95.6281,VALID,0,VALID,20.1708,VALID,357,VALID,0,
2014-06-26, 00:30:04,VALID,919.398,VALID,0,VALID,95.6053,VALID,0,VALID,20.2114,VALID,358,VALID,0,
2014-06-26, 00:31:04,VALID,919.39,VALID,0,VALID,95.6053,VALID,0,VALID,20.1724,VALID,357,VALID,0,
2014-06-26, 00:32:04,VALID,919.401,VALID,0,VALID,95.6434,VALID,0,VALID,20.1919,VALID,357,VALID,0,
2014-06-26, 00:33:04,VALID,919.389,VALID,0,VALID,95.651,VALID,0,VALID,20.1708,VALID,357,VALID,0,
2014-06-26, 00:34:04,VALID,919.387,VALID,0,VALID,95.6662,VALID,0,VALID,20.1903,VALID,358,VALID,0.337891,
2014-06-26, 00:35:04,VALID,919.401,VALID,0,VALID,95.6586,VALID,0,VALID,20.1708,VALID,358,VALID,0.413281,
2014-06-26, 00:36:04,VALID,919.382,VALID,0,VALID,95.712,VALID,0,VALID,20.1903,VALID,358,VALID,0.593359,
2014-06-26, 00:37:04,VALID,919.397,VALID,0,VALID,95.7501,VALID,0,VALID,20.2098,VALID,358,VALID,0.698047,
2014-06-26, 00:38:04,VALID,919.384,VALID,0,VALID,95.7349,VALID,0,VALID,20.1903,VALID,358,VALID,0.614062,
2014-06-26, 00:39:04,VALID,919.36,VALID,0,VALID,95.6815,VALID,0,VALID,20.1708,VALID,358,VALID,0.395703,
2014-06-26, 00:40:04,VALID,919.341,VALID,0,VALID,95.6357,VALID,0,VALID,20.1724,VALID,358,VALID,0.462891,
2014-06-26, 00:41:04,VALID,919.335,VALID,0,VALID,95.6586,VALID,0,VALID,20.1724,VALID,358,VALID,0.382813,
2014-06-26, 00:42:04,VALID,919.294,VALID,0,VALID,95.7272,VALID,0,VALID,20.2114,VALID,358,VALID,0.514453,
2014-06-26, 00:43:04,VALID,919.287,VALID,0,VALID,95.7425,VALID,0,VALID,20.1708,VALID,360,VALID,0.904297,
2014-06-26, 00:44:04,VALID,919.3,VALID,0,VALID,95.7806,VALID,0,VALID,20.1708,VALID,10,VALID,0.840234,
2014-06-26, 00:45:04,VALID,919.273,VALID,0,VALID,95.7425,VALID,0,VALID,20.1513,VALID,10,VALID,0.478125,
2014-06-26, 00:46:04,VALID,919.28,VALID,0,VALID,95.7425,VALID,0,VALID,20.1513,VALID,10,VALID,0,
2014-06-26, 00:47:04,VALID,919.247,VALID,0,VALID,95.7272,VALID,0,VALID,20.1513,VALID,10,VALID,0.38125,
2014-06-26, 00:48:04,VALID,919.24,VALID,0,VALID,95.7654,VALID,0,VALID,20.1903,VALID,10,VALID,0.251563,
2014-06-26, 00:49:04,VALID,919.209,VALID,0,VALID,95.8187,VALID,0,VALID,20.2699,VALID,10,VALID,0,
2014-06-26, 00:50:04,VALID,919.186,VALID,0,VALID,95.8416,VALID,0,VALID,20.2879,VALID,10,VALID,0.0117188,
2014-06-26, 00:51:04,VALID,919.197,VALID,0,VALID,95.8263,VALID,0,VALID,20.3074,VALID,358,VALID,0.561328,
2014-06-26, 00:52:04,VALID,919.168,VALID,0,VALID,95.8492,VALID,0,VALID,20.3269,VALID,358,VALID,0.599219,
2014-06-26, 00:53:04,VALID,919.174,VALID,0,VALID,95.8721,VALID,0,VALID,20.3659,VALID,358,VALID,0.192969,
2014-06-26, 00:54:04,VALID,919.191,VALID,0,VALID,95.5595,VALID,0,VALID,20.2309,VALID,358,VALID,0.148047,
2014-06-26, 00:55:04,VALID,919.195,VALID,0,VALID,95.4833,VALID,0,VALID,20.2098,VALID,359,VALID,0.153125,
2014-06-26, 00:56:04,VALID,919.188,VALID,0,VALID,95.3308,VALID,0,VALID,20.1724,VALID,1,VALID,0.460547,
2014-06-26, 00:57:04,VALID,919.166,VALID,0,VALID,95.3308,VALID,0,VALID,20.1513,VALID,360,VALID,0.620313,
2014-06-26, 00:58:04,VALID,919.125,VALID,0,VALID,95.3842,VALID,0,VALID,20.1919,VALID,360,VALID,0.610156,
2014-06-26, 00:59:04,VALID,919.143,VALID,0,VALID,95.3918,VALID,0,VALID,20.1903,VALID,360,VALID,0.598047,
2014-06-26, 01:00:04,VALID,919.153,VALID,0,VALID,95.3842,VALID,0,VALID,20.1708,VALID,360,VALID,0.628906,
2014-06-26, 01:01:04,VALID,919.154,VALID,0,VALID,95.468,VALID,0,VALID,20.2114,VALID,360,VALID,0.674219,
2014-06-26, 01:02:04,VALID,919.137,VALID,0,VALID,95.5671,VALID,0,VALID,20.2309,VALID,360,VALID,0.459375,
2014-06-26, 01:03:04,VALID,919.144,VALID,0,VALID,95.5671,VALID,0,VALID,20.2293,VALID,360,VALID,0.304688,
2014-06-26, 01:04:04,VALID,919.121,VALID,0,VALID,95.5824,VALID,0,VALID,20.2699,VALID,360,VALID,0.243359,
2014-06-26, 01:05:04,VALID,919.112,VALID,0,VALID,95.5519,VALID,0,VALID,20.2489,VALID,2,VALID,0.745313,
2014-06-26, 01:06:04,VALID,919.131,VALID,0,VALID,95.4985,VALID,0,VALID,20.2489,VALID,5,VALID,0.689453,
2014-06-26, 01:07:04,VALID,919.111,VALID,0,VALID,95.4757,VALID,0,VALID,20.2879,VALID,26,VALID,1.05859,
2014-06-26, 01:08:04,VALID,919.118,VALID,0,VALID,95.4223,VALID,0,VALID,20.2699,VALID,26,VALID,0.789453,
2014-06-26, 01:09:04,VALID,919.134,VALID,0,VALID,95.3689,VALID,0,VALID,20.2489,VALID,41,VALID,0.825,
2014-06-26, 01:10:04,VALID,919.125,VALID,0,VALID,95.3766,VALID,0,VALID,20.3089,VALID,41,VALID,0.884766,
2014-06-26, 01:11:04,VALID,919.126,VALID,0,VALID,95.3461,VALID,0,VALID,20.3464,VALID,41,VALID,0.610937,
2014-06-26, 01:12:04,VALID,919.093,VALID,0,VALID,95.0869,VALID,0,VALID,20.3269,VALID,41,VALID,0.605859,
2014-06-26, 01:13:04,VALID,919.145,VALID,0,VALID,94.7591,VALID,0,VALID,20.2684,VALID,41,VALID,0.528516,
2014-06-26, 01:14:04,VALID,919.135,VALID,0,VALID,94.9268,VALID,0,VALID,20.3479,VALID,41,VALID,0.835938,
2014-06-26, 01:15:04,VALID,919.143,VALID,0,VALID,94.7667,VALID,0,VALID,20.3464,VALID,41,VALID,0.736328,
2014-06-26, 01:16:04,VALID,919.166,VALID,0,VALID,94.4541,VALID,0,VALID,20.3464,VALID,41,VALID,0.736328,
2014-06-26, 01:17:04,VALID,919.157,VALID,0,VALID,93.3792,VALID,0,VALID,20.2894,VALID,41,VALID,0.463281,
2014-06-26, 01:18:04,VALID,919.169,VALID,0,VALID,93.0057,VALID,0,VALID,20.2098,VALID,41,VALID,0.8,
2014-06-26, 01:19:04,VALID,919.178,VALID,0,VALID,93.6232,VALID,0,VALID,20.2293,VALID,41,VALID,0.764453,
2014-06-26, 01:20:04,VALID,919.18,VALID,0,VALID,93.7604,VALID,0,VALID,20.2293,VALID,41,VALID,0.548437,
2014-06-26, 01:21:04,VALID,919.184,VALID,0,VALID,94.073,VALID,0,VALID,20.2489,VALID,41,VALID,0.422656,
2014-06-26, 01:22:04,VALID,919.206,VALID,0,VALID,93.951,VALID,0,VALID,20.3284,VALID,41,VALID,0.294531,
2014-06-26, 01:23:04,VALID,919.218,VALID,0,VALID,93.7985,VALID,0,VALID,20.2894,VALID,41,VALID,0.096875,
2014-06-26, 01:24:04,VALID,919.227,VALID,0,VALID,93.2496,VALID,0,VALID,20.2489,VALID,41,VALID,0,
2014-06-26, 01:25:04,VALID,919.195,VALID,0,VALID,92.6016,VALID,0,VALID,20.1513,VALID,41,VALID,0.0410156,
2014-06-26, 01:26:04,VALID,919.183,VALID,0,VALID,92.7236,VALID,0,VALID,20.1529,VALID,41,VALID,0.310547,
2014-06-26, 01:27:04,VALID,919.202,VALID,0,VALID,92.8303,VALID,0,VALID,20.0928,VALID,41,VALID,0.171484,
2014-06-26, 01:28:04,VALID,919.167,VALID,0,VALID,93.0362,VALID,0,VALID,20.0733,VALID,41,VALID,0.462109,
2014-06-26, 01:29:04,VALID,919.16,VALID,0,VALID,93.3106,VALID,0,VALID,20.0538,VALID,41,VALID,0.497656,
2014-06-26, 01:30:04,VALID,919.165,VALID,0,VALID,93.4097,VALID,0,VALID,20.0148,VALID,41,VALID,0.383594,
2014-06-26, 01:31:04,VALID,919.151,VALID,0,VALID,93.7147,VALID,0,VALID,20.0148,VALID,41,VALID,0.404687,
2014-06-26, 01:32:04,VALID,919.122,VALID,0,VALID,93.8671,VALID,0,VALID,19.9563,VALID,41,VALID,0.490625,
2014-06-26, 01:33:04,VALID,919.12,VALID,0,VALID,94.073,VALID,0,VALID,19.9368,VALID,41,VALID,0.502344,
2014-06-26, 01:34:04,VALID,919.114,VALID,0,VALID,94.2254,VALID,0,VALID,19.8978,VALID,41,VALID,0.317969,
2014-06-26, 01:35:04,VALID,919.078,VALID,0,VALID,94.3626,VALID,0,VALID,19.8978,VALID,41,VALID,0.491406,
2014-06-26, 01:36:04,VALID,919.053,VALID,0,VALID,94.6828,VALID,0,VALID,19.8783,VALID,41,VALID,1.00391,
2014-06-26, 01:37:04,VALID,919.061,VALID,0,VALID,94.881,VALID,0,VALID,19.8393,VALID,41,VALID,0.0757812,
2014-06-26, 01:38:04,VALID,919.066,VALID,0,VALID,94.9115,VALID,0,VALID,19.8783,VALID,41,VALID,0.151172,
2014-06-26, 01:39:04,VALID,919.05,VALID,0,VALID,94.8734,VALID,0,VALID,19.8198,VALID,41,VALID,0,
2014-06-26, 01:40:04,VALID,919.014,VALID,0,VALID,94.9954,VALID,0,VALID,19.8393,VALID,41,VALID,0,
2014-06-26, 01:41:04,VALID,918.997,VALID,0,VALID,95.1021,VALID,0,VALID,19.9188,VALID,41,VALID,0.00078125,
2014-06-26, 01:42:04,VALID,918.971,VALID,0,VALID,95.0564,VALID,0,VALID,19.9368,VALID,319,VALID,0.818359,
2014-06-26, 01:43:04,VALID,918.95,VALID,0,VALID,94.9573,VALID,0,VALID,19.9563,VALID,321,VALID,0.131641,
2014-06-26, 01:44:04,VALID,918.922,VALID,0,VALID,94.8048,VALID,0,VALID,20.0358,VALID,321,VALID,0,
2014-06-26, 01:45:04,VALID,918.909,VALID,0,VALID,94.233,VALID,0.107441,VALID,20.0538,VALID,321,VALID,0.434766,
2014-06-26, 01:46:04,VALID,918.872,VALID,0,VALID,93.7299,VALID,0,VALID,20.0733,VALID,321,VALID,0.746484,
2014-06-26, 01:47:04,VALID,918.855,VALID,0,VALID,93.768,VALID,0,VALID,20.1123,VALID,342,VALID,0.860937,
2014-06-26, 01:48:04,VALID,918.841,VALID,0,VALID,93.5546,VALID,0,VALID,20.1708,VALID,354,VALID,0.671484,
2014-06-26, 01:49:04,VALID,918.837,VALID,0,VALID,93.1658,VALID,0,VALID,20.1919,VALID,354,VALID,0.409766,
2014-06-26, 01:50:04,VALID,918.785,VALID,0,VALID,92.6855,VALID,0,VALID,20.1334,VALID,354,VALID,1.09844,
2014-06-26, 01:51:04,VALID,918.729,VALID,0,VALID,92.5254,VALID,0,VALID,20.0928,VALID,354,VALID,1.0125,
2014-06-26, 01:52:04,VALID,918.706,VALID,0,VALID,92.6779,VALID,0,VALID,20.0928,VALID,354,VALID,1.06367,
2014-06-26, 01:53:04,VALID,918.678,VALID,0,VALID,92.4949,VALID,0,VALID,20.1529,VALID,357,VALID,1.12148,
2014-06-26, 01:54:04,VALID,918.64,VALID,0,VALID,92.4873,VALID,0,VALID,20.1513,VALID,357,VALID,0.633594,
2014-06-26, 01:55:04,VALID,918.636,VALID,0,VALID,92.4034,VALID,0,VALID,20.1903,VALID,357,VALID,0.516797,
2014-06-26, 01:56:04,VALID,918.63,VALID,0,VALID,92.2281,VALID,0,VALID,20.2489,VALID,357,VALID,0.0726563,
2014-06-26, 01:57:04,VALID,918.59,VALID,0,VALID,92.1976,VALID,0,VALID,20.2684,VALID,358,VALID,1.17695,
2014-06-26, 01:58:04,VALID,918.584,VALID,0,VALID,92.3729,VALID,0,VALID,20.2684,VALID,357,VALID,0.433984,
2014-06-26, 01:59:04,VALID,918.548,VALID,0,VALID,92.5406,VALID,0,VALID,20.2684,VALID,357,VALID,0.558203,
2014-06-26, 02:00:04,VALID,918.538,VALID,0,VALID,92.6702,VALID,0,VALID,20.2293,VALID,357,VALID,0.491016,
2014-06-26, 02:01:04,VALID,918.501,VALID,0,VALID,92.7084,VALID,0,VALID,20.2293,VALID,358,VALID,0.625,
2014-06-26, 02:02:04,VALID,918.491,VALID,0,VALID,92.6016,VALID,0,VALID,20.2293,VALID,358,VALID,0.735937,
2014-06-26, 02:03:04,VALID,918.483,VALID,0,VALID,92.4187,VALID,0,VALID,20.2489,VALID,360,VALID,0.803125,
2014-06-26, 02:04:04,VALID,918.474,VALID,0,VALID,91.9918,VALID,0,VALID,20.2684,VALID,360,VALID,0.564844,
2014-06-26, 02:05:04,VALID,918.464,VALID,0,VALID,91.7707,VALID,0,VALID,20.2879,VALID,360,VALID,0.431641,
2014-06-26, 02:06:04,VALID,918.463,VALID,0,VALID,91.6792,VALID,0,VALID,20.2894,VALID,360,VALID,0.382031,
2014-06-26, 02:07:04,VALID,918.433,VALID,0,VALID,91.7021,VALID,0,VALID,20.2684,VALID,360,VALID,0.464844,
2014-06-26, 02:08:04,VALID,918.466,VALID,0,VALID,91.6258,VALID,0,VALID,20.2504,VALID,360,VALID,0.736328,
2014-06-26, 02:09:04,VALID,918.465,VALID,0,VALID,91.7326,VALID,0,VALID,20.2699,VALID,360,VALID,0.771875,
2014-06-26, 02:10:04,VALID,918.472,VALID,0,VALID,91.6182,VALID,0,VALID,20.2293,VALID,360,VALID,0.439063,
2014-06-26, 02:11:04,VALID,918.477,VALID,0,VALID,91.5648,VALID,0,VALID,20.2098,VALID,358,VALID,0.943359,
2014-06-26, 02:12:04,VALID,918.47,VALID,0,VALID,91.4657,VALID,0,VALID,20.2309,VALID,6,VALID,0.781641,
2014-06-26, 02:13:04,VALID,918.475,VALID,0,VALID,91.3209,VALID,0,VALID,20.1708,VALID,5,VALID,1.02578,
2014-06-26, 02:14:04,VALID,918.462,VALID,0,VALID,91.3438,VALID,0.107441,VALID,20.2098,VALID,360,VALID,1.32852,
2014-06-26, 02:15:04,VALID,918.473,VALID,0,VALID,91.2675,VALID,0,VALID,20.2504,VALID,346,VALID,0.857813,
2014-06-26, 02:16:04,VALID,918.49,VALID,0,VALID,91.3285,VALID,0,VALID,20.2489,VALID,351,VALID,1.00391,
2014-06-26, 02:17:04,VALID,918.453,VALID,0,VALID,91.2752,VALID,0,VALID,20.2879,VALID,349,VALID,0.977344,
2014-06-26, 02:18:04,VALID,918.453,VALID,0,VALID,91.1608,VALID,0.107441,VALID,20.3269,VALID,6,VALID,1.32461,
2014-06-26, 02:19:04,VALID,918.434,VALID,0,VALID,91.0998,VALID,0,VALID,20.3854,VALID,9,VALID,1.33945,
2014-06-26, 02:20:04,VALID,918.432,VALID,0,VALID,91.1456,VALID,0,VALID,20.3854,VALID,359,VALID,1.65469,
2014-06-26, 02:21:04,VALID,918.37,VALID,0,VALID,91.2447,VALID,0,VALID,20.3659,VALID,356,VALID,1.71172,
2014-06-26, 02:22:04,VALID,918.377,VALID,0,VALID,91.359,VALID,0,VALID,20.3659,VALID,351,VALID,1.08164,
2014-06-26, 02:23:04,VALID,918.345,VALID,0,VALID,91.4657,VALID,0,VALID,20.3089,VALID,4,VALID,1.63125,
2014-06-26, 02:24:04,VALID,918.341,VALID,0,VALID,91.4886,VALID,0,VALID,20.3074,VALID,10,VALID,1.44258,
2014-06-26, 02:25:04,VALID,918.366,VALID,0,VALID,91.4124,VALID,0,VALID,20.3269,VALID,3,VALID,0.891406,
2014-06-26, 02:26:04,VALID,918.362,VALID,0,VALID,91.5496,VALID,0,VALID,20.2879,VALID,2,VALID,0.894531,
2014-06-26, 02:27:04,VALID,918.368,VALID,0,VALID,91.6411,VALID,0,VALID,20.2684,VALID,3,VALID,0.658203,
2014-06-26, 02:28:04,VALID,918.394,VALID,0,VALID,91.8088,VALID,0,VALID,20.2489,VALID,348,VALID,0.831641,
2014-06-26, 02:29:04,VALID,918.391,VALID,0,VALID,91.8622,VALID,0,VALID,20.2293,VALID,348,VALID,0.237109,
2014-06-26, 02:30:04,VALID,918.404,VALID,0,VALID,91.8927,VALID,0,VALID,20.2879,VALID,348,VALID,0.00351562,
2014-06-26, 02:31:04,VALID,918.375,VALID,0,VALID,91.8469,VALID,0.107441,VALID,20.3089,VALID,339,VALID,0.858203,
2014-06-26, 02:32:04,VALID,918.352,VALID,0,VALID,91.7631,VALID,0,VALID,20.2879,VALID,347,VALID,1.29219,
2014-06-26, 02:33:04,VALID,918.357,VALID,0,VALID,91.5572,VALID,0,VALID,20.3269,VALID,359,VALID,1.00039,
2014-06-26, 02:34:04,VALID,918.372,VALID,0,VALID,91.3819,VALID,0,VALID,20.3269,VALID,4,VALID,1.08516,
2014-06-26, 02:35:04,VALID,918.363,VALID,0,VALID,91.298,VALID,0.107441,VALID,20.3464,VALID,352,VALID,0.462891,
2014-06-26, 02:36:04,VALID,918.371,VALID,0,VALID,91.2294,VALID,0,VALID,20.3074,VALID,355,VALID,1.16445,
2014-06-26, 02:37:04,VALID,918.398,VALID,0,VALID,91.0693,VALID,0,VALID,20.3269,VALID,354,VALID,0.908594,
2014-06-26, 02:38:04,VALID,918.394,VALID,0,VALID,90.9397,VALID,0,VALID,20.3269,VALID,356,VALID,0.798437,
2014-06-26, 02:39:04,VALID,918.372,VALID,0,VALID,90.9245,VALID,0,VALID,20.3464,VALID,356,VALID,0.826563,
2014-06-26, 02:40:04,VALID,918.363,VALID,0,VALID,90.9169,VALID,0,VALID,20.3074,VALID,356,VALID,0.620313,
2014-06-26, 02:41:04,VALID,918.358,VALID,0,VALID,91.0083,VALID,0,VALID,20.3464,VALID,356,VALID,0.555469,
2014-06-26, 02:42:04,VALID,918.363,VALID,0,VALID,91.1303,VALID,0,VALID,20.2684,VALID,356,VALID,0.625,
2014-06-26, 02:43:04,VALID,918.333,VALID,0,VALID,91.3971,VALID,0,VALID,20.2684,VALID,358,VALID,1.3418,
2014-06-26, 02:44:04,VALID,918.313,VALID,0,VALID,91.5039,VALID,0,VALID,20.2309,VALID,9,VALID,1.21055,
2014-06-26, 02:45:04,VALID,918.307,VALID,0,VALID,91.5801,VALID,0,VALID,20.2098,VALID,14,VALID,1.29297,
2014-06-26, 02:46:04,VALID,918.312,VALID,0,VALID,91.5267,VALID,0,VALID,20.2489,VALID,8,VALID,1.09844,
2014-06-26, 02:47:04,VALID,918.32,VALID,0,VALID,91.5191,VALID,0,VALID,20.3074,VALID,354,VALID,1.03047,
2014-06-26, 02:48:04,VALID,918.309,VALID,0,VALID,91.3133,VALID,0,VALID,20.2879,VALID,353,VALID,0.80625,
2014-06-26, 02:49:04,VALID,918.305,VALID,0,VALID,91.3285,VALID,0,VALID,20.3269,VALID,6,VALID,1.12891,
2014-06-26, 02:50:04,VALID,918.302,VALID,0,VALID,91.3133,VALID,0,VALID,20.2879,VALID,359,VALID,1.08945,
2014-06-26, 02:51:04,VALID,918.253,VALID,0,VALID,91.3057,VALID,0,VALID,20.3674,VALID,14,VALID,1.24414,
2014-06-26, 02:52:04,VALID,918.235,VALID,0,VALID,91.298,VALID,0,VALID,20.3659,VALID,7,VALID,0.794531,
2014-06-26, 02:53:04,VALID,918.255,VALID,0,VALID,91.3133,VALID,0,VALID,20.3269,VALID,6,VALID,0.471875,
2014-06-26, 02:54:04,VALID,918.274,VALID,0,VALID,91.2828,VALID,0,VALID,20.3659,VALID,6,VALID,0.0128906,
2014-06-26, 02:55:04,VALID,918.26,VALID,0,VALID,91.3819,VALID,0,VALID,20.3854,VALID,6,VALID,0,
2014-06-26, 02:56:04,VALID,918.271,VALID,0,VALID,91.42,VALID,0,VALID,20.3854,VALID,8,VALID,0.566406,
2014-06-26, 02:57:04,VALID,918.298,VALID,0,VALID,91.4581,VALID,0,VALID,20.4049,VALID,21,VALID,0.665234,
2014-06-26, 02:58:04,VALID,918.294,VALID,0,VALID,91.6182,VALID,0,VALID,20.3854,VALID,21,VALID,0.586719,
2014-06-26, 02:59:04,VALID,918.326,VALID,0,VALID,91.7859,VALID,0,VALID,20.3464,VALID,21,VALID,0.43125,
2014-06-26, 03:00:04,VALID,918.324,VALID,0,VALID,91.8622,VALID,0,VALID,20.3659,VALID,22,VALID,0.407031,
2014-06-26, 03:01:04,VALID,918.377,VALID,0,VALID,91.8927,VALID,0,VALID,20.3674,VALID,20,VALID,0.253906,
2014-06-26, 03:02:04,VALID,918.381,VALID,0,VALID,91.9003,VALID,0,VALID,20.3854,VALID,20,VALID,0,
2014-06-26, 03:03:05,VALID,918.361,VALID,0,VALID,91.8927,VALID,0,VALID,20.3269,VALID,20,VALID,0.545313,
2014-06-26, 03:04:05,VALID,918.352,VALID,0,VALID,91.8622,VALID,0,VALID,20.3674,VALID,21,VALID,1.02031,
2014-06-26, 03:05:05,VALID,918.382,VALID,0,VALID,91.8393,VALID,0,VALID,20.3269,VALID,20,VALID,0.867578,
2014-06-26, 03:06:05,VALID,918.366,VALID,0,VALID,91.9079,VALID,0,VALID,20.3074,VALID,20,VALID,1.06484,
2014-06-26, 03:07:05,VALID,918.376,VALID,0,VALID,91.9841,VALID,0,VALID,20.3074,VALID,15,VALID,0.931641,
2014-06-26, 03:08:05,VALID,918.378,VALID,0,VALID,92.0146,VALID,0,VALID,20.3479,VALID,14,VALID,0.648047,
2014-06-26, 03:09:05,VALID,918.386,VALID,0,VALID,91.9155,VALID,0,VALID,20.3269,VALID,16,VALID,0.964844,
2014-06-26, 03:10:05,VALID,918.379,VALID,0,VALID,91.8622,VALID,0,VALID,20.4049,VALID,12,VALID,0.86875,
2014-06-26, 03:11:05,VALID,918.411,VALID,0,VALID,91.7631,VALID,0,VALID,20.3869,VALID,5,VALID,1.82031,
2014-06-26, 03:12:05,VALID,918.417,VALID,0,VALID,91.6716,VALID,0,VALID,20.3643,VALID,4,VALID,2.05,
2014-06-26, 03:13:05,VALID,918.402,VALID,0,VALID,91.5725,VALID,0,VALID,20.4454,VALID,343,VALID,2.12305,
2014-06-26, 03:14:05,VALID,918.391,VALID,0,VALID,91.3895,VALID,0,VALID,20.5024,VALID,22,VALID,1.55313,
2014-06-26, 03:15:05,VALID,918.39,VALID,0,VALID,91.2294,VALID,0,VALID,20.543,VALID,344,VALID,1.96875,
2014-06-26, 03:16:05,VALID,918.38,VALID,0,VALID,91.0236,VALID,0,VALID,20.5414,VALID,10,VALID,2.01875,
2014-06-26, 03:17:05,VALID,918.363,VALID,0,VALID,91.0083,VALID,0,VALID,20.5625,VALID,351,VALID,0.960938,
2014-06-26, 03:18:05,VALID,918.401,VALID,0,VALID,91.0541,VALID,0,VALID,20.504,VALID,358,VALID,1.52422,
2014-06-26, 03:19:05,VALID,918.383,VALID,0,VALID,91.077,VALID,0,VALID,20.543,VALID,347,VALID,2.00547,
2014-06-26, 03:20:05,VALID,918.397,VALID,0,VALID,91.1303,VALID,0,VALID,20.5414,VALID,22,VALID,1.49102,
2014-06-26, 03:21:05,VALID,918.416,VALID,0,VALID,91.1303,VALID,0,VALID,20.5219,VALID,1,VALID,1.64375,
2014-06-26, 03:22:05,VALID,918.373,VALID,0,VALID,91.1303,VALID,0,VALID,20.5414,VALID,341,VALID,1.83828,
2014-06-26, 03:23:05,VALID,918.362,VALID,0,VALID,91.1456,VALID,0,VALID,20.5414,VALID,10,VALID,1.55078,
2014-06-26, 03:24:05,VALID,918.388,VALID,0,VALID,91.2218,VALID,0,VALID,20.5414,VALID,17,VALID,1.63242,
2014-06-26, 03:25:05,VALID,918.365,VALID,0,VALID,91.2752,VALID,0,VALID,20.5024,VALID,2,VALID,1.36055,
2014-06-26, 03:26:05,VALID,918.409,VALID,0,VALID,91.3666,VALID,0,VALID,20.5235,VALID,349,VALID,1.43086,
2014-06-26, 03:27:05,VALID,918.385,VALID,0,VALID,91.42,VALID,0,VALID,20.4829,VALID,349,VALID,1.38672,
2014-06-26, 03:28:05,VALID,918.387,VALID,0,VALID,91.481,VALID,0,VALID,20.5219,VALID,5,VALID,1.32422,
2014-06-26, 03:29:05,VALID,918.373,VALID,0,VALID,91.5267,VALID,0,VALID,20.5235,VALID,16,VALID,1.03594,
2014-06-26, 03:30:05,VALID,918.356,VALID,0,VALID,91.5344,VALID,0,VALID,20.5024,VALID,13,VALID,1.13828,
2014-06-26, 03:31:05,VALID,918.361,VALID,0,VALID,91.6258,VALID,0,VALID,20.4829,VALID,342,VALID,1.27969,
2014-06-26, 03:32:05,VALID,918.366,VALID,0,VALID,91.7554,VALID,0,VALID,20.4244,VALID,360,VALID,1.44258,
2014-06-26, 03:33:05,VALID,918.339,VALID,0,VALID,91.8469,VALID,0,VALID,20.4244,VALID,343,VALID,1.30117,
2014-06-26, 03:34:05,VALID,918.339,VALID,0,VALID,91.9613,VALID,0,VALID,20.4439,VALID,2,VALID,1.59805,
2014-06-26, 03:35:05,VALID,918.352,VALID,0,VALID,91.9918,VALID,0,VALID,20.4049,VALID,351,VALID,1.41562,
2014-06-26, 03:36:05,VALID,918.35,VALID,0,VALID,92.0527,VALID,0,VALID,20.4049,VALID,358,VALID,1.78867,
2014-06-26, 03:37:05,VALID,918.377,VALID,0,VALID,92.1137,VALID,0,VALID,20.3659,VALID,6,VALID,1.49492,
2014-06-26, 03:38:05,VALID,918.359,VALID,0,VALID,92.1976,VALID,0,VALID,20.3269,VALID,356,VALID,1.09102,
2014-06-26, 03:39:05,VALID,918.381,VALID,0,VALID,92.2814,VALID,0,VALID,20.3074,VALID,355,VALID,1.28906,
2014-06-26, 03:40:05,VALID,918.395,VALID,0,VALID,92.3729,VALID,0,VALID,20.2863,VALID,350,VALID,1.45313,
2014-06-26, 03:41:05,VALID,918.401,VALID,0,VALID,92.5178,VALID,0,VALID,20.3074,VALID,337,VALID,1.44805,
2014-06-26, 03:42:05,VALID,918.377,VALID,0,VALID,92.6016,VALID,0,VALID,20.2879,VALID,343,VALID,1.44609,
2014-06-26, 03:43:05,VALID,918.357,VALID,0,VALID,92.6321,VALID,0,VALID,20.3464,VALID,354,VALID,1.65664,
2014-06-26, 03:44:05,VALID,918.37,VALID,0,VALID,92.6397,VALID,0.107441,VALID,20.2879,VALID,9,VALID,1.50781,
2014-06-26, 03:45:05,VALID,918.354,VALID,0,VALID,92.5559,VALID,0,VALID,20.2684,VALID,351,VALID,1.11211,
2014-06-26, 03:46:05,VALID,918.322,VALID,0,VALID,92.6626,VALID,0,VALID,20.2684,VALID,335,VALID,1.35586,